Time,TemperatureF,DewpointF,PressureIn,WindDirection,WindDirectionDegrees,WindSpeedMPH,WindSpeedGustMPH,Humidity,HourlyPrecipIn,Conditions,Clouds,dailyrainin,SoftwareType,DateUTC
2013-04-19 00:08:00,51.4,43.0,30.07,West,270,2.7,-999.0,73,-99.99,,,0.00,Acu-Link.com,2013-04-19 04:08:00,
2013-04-19 00:24:00,51.4,43.4,30.07,ESE,112,2.7,-999.0,74,-99.99,,,0.00,Acu-Link.com,2013-04-19 04:24:00,
2013-04-19 00:39:00,51.4,43.7,30.06,SW,225,1.1,-999.0,75,-99.99,,,0.00,Acu-Link.com,2013-04-19 04:39:00,
2013-04-19 00:54:00,51.4,44.1,30.05,ESE,112,3.2,-999.0,76,-99.99,,,0.00,Acu-Link.com,2013-04-19 04:54:00,
2013-04-19 01:09:00,51.6,44.6,30.04,SSE,157,1.7,-999.0,77,-99.99,,,0.00,Acu-Link.com,2013-04-19 05:09:00,
2013-04-19 01:24:00,51.6,44.6,30.03,South,180,0.0,-999.0,77,-99.99,,,0.00,Acu-Link.com,2013-04-19 05:24:00,
2013-04-19 01:40:00,51.6,45.3,30.03,NE,45,1.7,-999.0,79,-99.99,,,0.00,Acu-Link.com,2013-04-19 05:40:00,
2013-04-19 01:55:00,51.6,45.6,30.01,SSE,157,1.7,-999.0,80,-99.99,,,0.00,Acu-Link.com,2013-04-19 05:55:00,
2013-04-19 02:10:00,51.6,46.0,30.00,South,180,4.2,-999.0,81,-99.99,,,0.00,Acu-Link.com,2013-04-19 06:10:00,
2013-04-19 02:25:00,51.6,46.3,29.98,East,90,1.7,-999.0,82,-99.99,,,0.00,Acu-Link.com,2013-04-19 06:25:00,
2013-04-19 02:40:00,51.6,46.9,29.98,East,90,1.7,-999.0,84,-99.99,,,0.00,Acu-Link.com,2013-04-19 06:40:00,
2013-04-19 02:56:00,51.8,47.4,29.98,ESE,112,3.7,-999.0,85,-99.99,,,0.00,Acu-Link.com,2013-04-19 06:56:00,
2013-04-19 03:11:00,52.0,48.6,29.98,West,270,3.2,-999.0,88,-99.99,,,0.00,Acu-Link.com,2013-04-19 07:11:00,
2013-04-19 03:26:00,52.2,48.8,29.98,West,270,1.7,-999.0,88,-99.99,,,0.00,Acu-Link.com,2013-04-19 07:26:00,
2013-04-19 03:41:00,52.2,49.1,29.97,South,180,2.7,-999.0,89,-99.99,,,0.00,Acu-Link.com,2013-04-19 07:41:00,
2013-04-19 03:56:00,52.3,49.8,29.96,SW,225,1.7,-999.0,91,-99.99,,,0.00,Acu-Link.com,2013-04-19 07:56:00,
2013-04-19 04:12:00,52.3,49.8,29.96,WNW,292,0.0,-999.0,91,-99.99,,,0.00,Acu-Link.com,2013-04-19 08:12:00,
2013-04-19 04:27:00,52.5,50.2,29.96,SSE,157,1.7,-999.0,92,-99.99,,,0.00,Acu-Link.com,2013-04-19 08:27:00,
2013-04-19 04:42:00,52.5,50.8,29.95,East,90,1.7,-999.0,94,-99.99,,,0.00,Acu-Link.com,2013-04-19 08:42:00,
2013-04-19 04:57:00,52.5,51.4,29.94,ESE,112,2.2,-999.0,96,-99.99,,,0.00,Acu-Link.com,2013-04-19 08:57:00,
2013-04-19 05:13:00,52.5,51.7,29.93,West,270,0.0,-999.0,97,-99.99,,,0.00,Acu-Link.com,2013-04-19 09:13:00,
2013-04-19 05:28:00,52.5,52.0,29.93,East,90,2.7,-999.0,98,-99.99,,,0.00,Acu-Link.com,2013-04-19 09:28:00,
2013-04-19 05:43:00,52.5,52.2,29.90,NE,45,1.7,-999.0,99,-99.99,,,0.00,Acu-Link.com,2013-04-19 09:43:00,
2013-04-19 05:58:00,52.7,52.4,29.90,ESE,112,1.7,-999.0,99,-99.99,,,0.00,Acu-Link.com,2013-04-19 09:58:00,
2013-04-19 06:13:00,52.9,52.6,29.91,East,90,0.0,-999.0,99,-99.99,,,0.00,Acu-Link.com,2013-04-19 10:13:00,
2013-04-19 06:29:00,53.6,53.3,29.92,ENE,67,1.7,-999.0,99,-99.99,,,0.00,Acu-Link.com,2013-04-19 10:29:00,
2013-04-19 06:44:00,54.3,54.0,29.91,South,180,2.7,-999.0,99,-99.99,,,0.00,Acu-Link.com,2013-04-19 10:44:00,
2013-04-19 06:59:00,54.9,54.3,29.92,SSW,202,1.7,-999.0,98,-99.99,,,0.00,Acu-Link.com,2013-04-19 10:59:00,
2013-04-19 07:14:00,55.6,54.8,29.91,SW,225,3.7,-999.0,97,-99.99,,,0.00,Acu-Link.com,2013-04-19 11:14:00,
2013-04-19 07:29:00,56.1,55.3,29.92,SW,225,4.2,-999.0,97,-99.99,,,0.00,Acu-Link.com,2013-04-19 11:29:00,
2013-04-19 07:45:00,57.4,55.7,29.92,SE,135,4.7,-999.0,94,-99.99,,,0.00,Acu-Link.com,2013-04-19 11:45:00,
2013-04-19 08:00:00,59.2,56.3,29.91,South,180,1.7,-999.0,90,-99.99,,,0.00,Acu-Link.com,2013-04-19 12:00:00,
2013-04-19 08:15:00,61.7,56.8,29.90,SW,225,2.2,-999.0,84,-99.99,,,0.00,Acu-Link.com,2013-04-19 12:15:00,
2013-04-19 08:30:00,62.6,57.0,29.89,ESE,112,3.2,-999.0,82,-99.99,,,0.00,Acu-Link.com,2013-04-19 12:30:00,
2013-04-19 08:45:00,64.2,57.5,29.90,ESE,112,5.8,-999.0,79,-99.99,,,0.00,Acu-Link.com,2013-04-19 12:45:00,
2013-04-19 09:01:00,64.6,57.6,29.90,WSW,247,3.2,-999.0,78,-99.99,,,0.00,Acu-Link.com,2013-04-19 13:01:00,
2013-04-19 09:16:00,65.1,57.3,29.89,ENE,67,5.3,-999.0,76,-99.99,,,0.00,Acu-Link.com,2013-04-19 13:16:00,
2013-04-19 09:31:00,65.1,57.7,29.88,SSW,202,5.3,-999.0,77,-99.99,,,0.00,Acu-Link.com,2013-04-19 13:31:00,
2013-04-19 09:46:00,66.7,58.1,29.87,SSW,202,4.7,-999.0,74,-99.99,,,0.00,Acu-Link.com,2013-04-19 13:46:00,
2013-04-19 10:02:00,68.5,57.9,29.86,SSE,157,3.7,-999.0,69,-99.99,,,0.00,Acu-Link.com,2013-04-19 14:02:00,
2013-04-19 10:17:00,68.9,57.9,29.85,SSW,202,6.3,-999.0,68,-99.99,,,0.00,Acu-Link.com,2013-04-19 14:17:00,
2013-04-19 10:32:00,70.3,58.4,29.86,WSW,247,5.3,-999.0,66,-99.99,,,0.00,Acu-Link.com,2013-04-19 14:32:00,
2013-04-19 10:47:00,69.6,58.1,29.85,West,270,6.8,-999.0,67,-99.99,,,0.00,Acu-Link.com,2013-04-19 14:47:00,
2013-04-19 11:02:00,70.5,58.6,29.84,South,180,4.7,-999.0,66,-99.99,,,0.00,Acu-Link.com,2013-04-19 15:02:00,
2013-04-19 11:18:00,70.5,58.2,29.82,WSW,247,9.9,-999.0,65,-99.99,,,0.00,Acu-Link.com,2013-04-19 15:18:00,
2013-04-19 11:33:00,71.8,58.5,29.82,WNW,292,5.3,-999.0,63,-99.99,,,0.00,Acu-Link.com,2013-04-19 15:33:00,
2013-04-19 11:48:00,74.8,59.0,29.82,WSW,247,8.3,-999.0,58,-99.99,,,0.00,Acu-Link.com,2013-04-19 15:48:00,
2013-04-19 12:03:00,72.1,58.3,29.81,South,180,3.2,-999.0,62,-99.99,,,0.00,Acu-Link.com,2013-04-19 16:03:00,
2013-04-19 12:18:00,72.7,58.5,29.79,West,270,3.7,-999.0,61,-99.99,,,0.00,Acu-Link.com,2013-04-19 16:18:00,
2013-04-19 12:34:00,73.2,59.4,29.79,WNW,292,4.7,-999.0,62,-99.99,,,0.00,Acu-Link.com,2013-04-19 16:34:00,
2013-04-19 12:49:00,74.3,59.0,29.78,South,180,4.2,-999.0,59,-99.99,,,0.00,Acu-Link.com,2013-04-19 16:49:00,
2013-04-19 13:04:00,74.5,59.2,29.76,South,180,2.2,-999.0,59,-99.99,,,0.00,Acu-Link.com,2013-04-19 17:04:00,
2013-04-19 13:19:00,74.5,58.7,29.77,SSW,202,8.3,-999.0,58,-99.99,,,0.00,Acu-Link.com,2013-04-19 17:19:00,
2013-04-19 13:35:00,75.4,58.6,29.76,SSE,157,8.3,-999.0,56,-99.99,,,0.00,Acu-Link.com,2013-04-19 17:35:00,
2013-04-19 13:50:00,76.3,58.9,29.74,SW,225,11.4,-999.0,55,-99.99,,,0.00,Acu-Link.com,2013-04-19 17:50:00,
2013-04-19 14:05:00,76.6,59.2,29.73,West,270,8.3,-999.0,55,-99.99,,,0.00,Acu-Link.com,2013-04-19 18:05:00,
2013-04-19 14:20:00,79.2,60.0,29.71,East,90,6.3,-999.0,52,-99.99,,,0.00,Acu-Link.com,2013-04-19 18:20:00,
2013-04-19 14:35:00,76.3,58.9,29.71,SSW,202,5.8,-999.0,55,-99.99,,,0.00,Acu-Link.com,2013-04-19 18:35:00,
2013-04-19 14:51:00,75.6,58.8,29.70,West,270,8.3,-999.0,56,-99.99,,,0.00,Acu-Link.com,2013-04-19 18:51:00,
2013-04-19 15:06:00,75.9,59.1,29.69,SSW,202,2.7,-999.0,56,-99.99,,,0.00,Acu-Link.com,2013-04-19 19:06:00,
2013-04-19 15:21:00,74.3,59.0,29.68,SSW,202,15.5,-999.0,59,-99.99,,,0.00,Acu-Link.com,2013-04-19 19:21:00,
2013-04-19 15:36:00,74.8,58.5,29.69,West,270,15.0,-999.0,57,-99.99,,,0.00,Acu-Link.com,2013-04-19 19:36:00,
2013-04-19 15:51:00,73.6,58.8,29.69,WSW,247,6.8,-999.0,60,-99.99,,,0.00,Acu-Link.com,2013-04-19 19:51:00,
2013-04-19 16:07:00,72.7,59.4,29.68,South,180,5.8,-999.0,63,-99.99,,,0.00,Acu-Link.com,2013-04-19 20:07:00,
2013-04-19 16:22:00,71.4,60.3,29.68,WSW,247,7.3,-999.0,68,-99.99,,,0.00,Acu-Link.com,2013-04-19 20:22:00,
2013-04-19 16:37:00,71.1,60.8,29.67,SSW,202,6.8,-999.0,70,-99.99,,,0.00,Acu-Link.com,2013-04-19 20:37:00,
2013-04-19 16:52:00,70.2,61.5,29.66,South,180,5.3,-999.0,74,-99.99,,,0.00,Acu-Link.com,2013-04-19 20:52:00,
2013-04-19 17:07:00,69.8,61.5,29.66,West,270,3.2,-999.0,75,-99.99,,,0.00,Acu-Link.com,2013-04-19 21:07:00,
2013-04-19 17:23:00,69.4,61.1,29.65,SSE,157,4.7,-999.0,75,-99.99,,,0.00,Acu-Link.com,2013-04-19 21:23:00,
2013-04-19 17:38:00,69.1,61.6,29.63,NNW,337,6.8,-999.0,77,-99.99,,,0.00,Acu-Link.com,2013-04-19 21:38:00,
2013-04-19 17:53:00,68.9,61.4,29.63,SSW,202,5.8,-999.0,77,-99.99,,,0.00,Acu-Link.com,2013-04-19 21:53:00,
2013-04-19 18:08:00,68.5,61.7,29.62,East,90,3.2,-999.0,79,-99.99,,,0.00,Acu-Link.com,2013-04-19 22:08:00,
2013-04-19 18:24:00,68.2,62.1,29.60,SSW,202,7.8,-999.0,81,-99.99,,,0.00,Acu-Link.com,2013-04-19 22:24:00,
2013-04-19 18:39:00,68.0,61.9,29.61,South,180,4.7,-999.0,81,-99.99,,,0.00,Acu-Link.com,2013-04-19 22:39:00,
2013-04-19 18:54:00,68.0,61.9,29.61,ESE,112,1.7,-999.0,81,-99.99,,,0.00,Acu-Link.com,2013-04-19 22:54:00,
2013-04-19 19:09:00,67.6,61.6,29.60,SSE,157,11.9,-999.0,81,-99.99,,,0.00,Acu-Link.com,2013-04-19 23:09:00,
2013-04-19 19:24:00,67.3,61.6,29.61,SW,225,6.3,-999.0,82,-99.99,,,0.00,Acu-Link.com,2013-04-19 23:24:00,
2013-04-19 19:40:00,67.1,61.4,29.62,SSW,202,6.8,-999.0,82,-99.99,,,0.00,Acu-Link.com,2013-04-19 23:40:00,
2013-04-19 19:55:00,66.7,61.0,29.61,SSW,202,6.3,-999.0,82,-99.99,,,0.00,Acu-Link.com,2013-04-19 23:55:00,
2013-04-19 20:10:00,66.6,60.9,29.62,SE,135,7.3,-999.0,82,-99.99,,,0.00,Acu-Link.com,2013-04-20 00:10:00,
2013-04-19 20:25:00,66.4,60.7,29.62,West,270,2.7,-999.0,82,-99.99,,,0.00,Acu-Link.com,2013-04-20 00:25:00,
2013-04-19 20:40:00,66.4,60.7,29.61,WNW,292,3.7,-999.0,82,-99.99,,,0.00,Acu-Link.com,2013-04-20 00:40:00,
2013-04-19 20:56:00,66.2,60.9,29.61,NNE,22,9.4,-999.0,83,-99.99,,,0.00,Acu-Link.com,2013-04-20 00:56:00,
2013-04-19 21:11:00,65.8,60.8,29.59,ESE,112,5.3,-999.0,84,-99.99,,,0.00,Acu-Link.com,2013-04-20 01:11:00,
2013-04-19 21:26:00,65.8,60.8,29.58,ENE,67,9.4,-999.0,84,-99.99,,,0.00,Acu-Link.com,2013-04-20 01:26:00,
2013-04-19 21:41:00,65.8,60.8,29.59,SSW,202,11.4,-999.0,84,-99.99,,,0.00,Acu-Link.com,2013-04-20 01:41:00,
2013-04-19 21:56:00,65.8,61.2,29.58,SW,225,5.8,-999.0,85,-99.99,,,0.00,Acu-Link.com,2013-04-20 01:56:00,
2013-04-19 22:12:00,65.7,61.4,29.57,ESE,112,5.3,-999.0,86,-99.99,,,0.00,Acu-Link.com,2013-04-20 02:12:00,
2013-04-19 22:27:00,65.7,61.4,29.57,ENE,67,5.8,-999.0,86,-99.99,,,0.00,Acu-Link.com,2013-04-20 02:27:00,
2013-04-19 22:42:00,66.0,61.7,29.56,SE,135,4.7,-999.0,86,-99.99,,,0.00,Acu-Link.com,2013-04-20 02:42:00,
2013-04-19 22:57:00,66.2,61.9,29.56,WSW,247,6.8,-999.0,86,-99.99,,,0.00,Acu-Link.com,2013-04-20 02:57:00,
2013-04-19 23:13:00,66.6,61.9,29.56,West,270,5.3,-999.0,85,-99.99,,,0.00,Acu-Link.com,2013-04-20 03:13:00,
2013-04-19 23:28:00,67.1,62.4,29.54,NNW,337,10.9,-999.0,85,-99.99,,,0.00,Acu-Link.com,2013-04-20 03:28:00,
2013-04-19 23:43:00,67.3,62.6,29.54,West,270,5.3,-999.0,85,-99.99,,,0.00,Acu-Link.com,2013-04-20 03:43:00,
2013-04-19 23:58:00,67.3,62.6,29.52,WNW,292,6.3,-999.0,85,-99.99,,,0.00,Acu-Link.com,2013-04-20 03:58:00,